Location: Unspecified
(0.0000°N, 0.0000°E)
Time: 06:53:47
(UTC+00:00)

deb ESSA 4 - Visible Passes

Search period start: 18 April 2026 00:00
Search period end: 28 April 2026 00:00
Orbit: 1391 x 1447 km, 102.2° (Epoch: 17 April)

Date Brightness Start Highest point End Pass type
(mag) Time Alt. Az. Time Alt. Az. Time Alt. Az.
18 Apr ? 19:46:07 20° SSE 19:52:22 82° ENE 20:00:41 10° NNW visible
18 Apr ? 21:41:52 10° WSW 21:43:54 11° WSW 21:45:56 10° W visible
19 Apr ? 18:38:42 10° ESE 18:44:58 24° ENE 18:51:10 10° NNE visible
19 Apr ? 20:31:37 23° SSW 20:36:36 47° WSW 20:44:26 10° NW visible
20 Apr ? 19:22:50 18° SE 19:29:09 55° ENE 19:37:10 10° N visible
20 Apr ? 21:17:06 15° SW 21:20:46 20° WSW 21:26:20 10° WNW visible
21 Apr ? 18:17:55 10° E 18:21:48 14° ENE 18:25:40 10° NE visible
21 Apr ? 20:08:18 27° S 20:13:24 71° WSW 20:21:39 10° NNW visible
22 Apr ? 18:59:28 13° SE 19:05:57 35° ENE 19:13:15 10° N visible
22 Apr ? 20:53:44 22° SSW 20:57:36 32° WSW 21:04:41 10° NW visible
23 Apr ? 19:44:54 26° SSE 19:50:11 78° ENE 19:58:27 10° NNW visible
23 Apr ? 21:39:10 10° SW 21:41:43 12° WSW 21:44:36 10° W visible
24 Apr ? 18:36:45 10° ESE 18:42:46 22° ENE 18:48:44 10° NNE visible
24 Apr ? 20:30:19 29° SSW 20:34:25 49° WSW 20:42:19 10° NW visible
25 Apr ? 19:21:26 21° SE 19:26:58 52° ENE 19:34:53 10° N visible
25 Apr ? 21:15:43 18° SW 21:18:35 21° WSW 21:24:25 10° WNW visible
26 Apr ? 18:16:18 10° E 18:19:37 13° ENE 18:22:55 10° NE visible
26 Apr ? 20:06:50 32° S 20:11:13 75° WSW 20:19:27 10° NNW visible
27 Apr ? 18:57:57 15° SE 19:03:46 33° ENE 19:10:54 10° NNE visible
27 Apr ? 20:52:13 26° SW 20:55:25 34° WSW 21:02:38 10° NW visible
